[[{"header":{"parameterUnit":"m.s-1","parameterCategory":2,"la1":30.2991,"la2":30.254,"lo1":-89.0895,"lo2":-89.0444,"dy":0.0017,"dx":0.0017,"nx":28,"ny":28,"refTime":"2024-07-09T09:00:00:Z","depth":"0","parameterNumber":2,"parameterNumberName":"U-component_of_CURRENTS"},"data":[0,0,0,0,0,0,0,0,0,0,0,0,0,0,0,0,0,0,0,0,0,0,0,0,0,0,0,0,0,0,0,0,0,0,0,0,0,0,0,0,0,0,0,0,0,0,0,0,0,0,0,0,0,0,0,0,0,0,0.2973,0.2973,0,0.3019,0.3019,0.3019,0.3009,0.3008,0.3008,0.3007,0.3,0.3,0.3001,0,0,0,0,0,0,0,0,0,0,0,0,0,0.2879,0.288,0.2973,0.2974,0.2974,0.3019,0.3019,0.3019,0.3009,0.3008,0.3008,0.3007,0.3,0.3,0.3001,0,0,0,0,0,0,0,0,0,0,0,0,0,0.2918,0.2881,0.2972,0.2977,0.2978,0.3019,0.3019,0.302,0.3009,0.3008,0.3007,0.3007,0.3,0.3,0.3001,0.3021,0,0,0.3002,0.3003,0,0,0,0,0,0,0,0,0.2916,0.2921,0.2975,0.2977,0.2978,0.301,0.2984,0.3019,0.3009,0.2994,0.3007,0.3006,0.3001,0.3002,0.3008,0.3021,0.3021,0.3002,0.3003,0.3003,0.3003,0,0,0,0,0,0,0,0.2913,0.2919,0.2988,0.2977,0.2978,0.2978,0.2982,0.299,0.2998,0.2995,0.2995,0.3006,0.3001,0.3008,0.3008,0.3021,0.3002,0.3003,0.3003,0.3003,0.3109,0.3112,0,0,0,0,0,0,0.2916,0.2917,0.2986,0.2989,0.2948,0.2981,0.2985,0.2998,0.2999,0.3,0.3007,0.3005,0.3007,0.3007,0.3008,0.3086,0.3003,0.3004,0.3004,0.3107,0.311,0.3112,0,0,0,0,0,0,0.2913,0.2921,0.2984,0.2956,0.2965,0.2983,0.2998,0.2999,0.301,0.3009,0.3008,0.3016,0.3007,0.3007,0.3032,0.3084,0.3004,0.3004,0.3104,0.3108,0.3111,0.3209,0,0,0,0,0,0,0.291,0.292,0.2926,0.2957,0.2967,0.3012,0.2999,0.3001,0.3019,0.3018,0.3017,0.3015,0.3006,0.3031,0.3032,0.3083,0.3005,0.3101,0.3105,0.311,0.3202,0.3215,0.3226,0,0,0,0,0,0.2907,0.2912,0.2926,0.2934,0.2976,0.3013,0.3018,0.3026,0.3021,0.303,0.3039,0.3016,0.3062,0.3033,0.3034,0.3086,0.3098,0.3104,0.311,0.3197,0.3213,0.3226,0,0,0,0,0,0,0.2866,0.2914,0.2928,0.2946,0.2983,0.3013,0.3019,0.3033,0.3048,0.3042,0.3039,0.3039,0.3083,0.3071,0.304,0.3133,0.308,0.3086,0.3147,0.3161,0.3173,0.3182,0.3005,0,0,0,0,0,0.2865,0.2885,0.2933,0.2948,0.2967,0.2998,0.3012,0.3025,0.3046,0.3051,0.3057,0.3072,0.3109,0.3121,0.3135,0.318,0.3181,0.3218,0.323,0.324,0.325,0.3321,0.334,0.3131,0.3131,0.3131,0,0,0.2852,0.2883,0.2892,0.2942,0.2966,0.3002,0.3003,0.303,0.3069,0.3048,0.3089,0.3106,0.3128,0.3184,0.3204,0.318,0.3297,0.3247,0.3256,0.326,0.3329,0.3349,0.3367,0.3135,0.3134,0.3133,0,0,0.2841,0.2867,0.2884,0.2922,0.2971,0.2999,0.3012,0.3053,0.308,0.3128,0.3138,0.3193,0.3218,0.3268,0.3293,0.3381,0.3355,0.3382,0.3455,0.3524,0.3542,0.3558,0.3567,0.3583,0.3393,0.3393,0.3393,0,0.2824,0.2859,0.2894,0.2929,0.2965,0.3001,0.3038,0.3079,0.3125,0.3175,0.3147,0.3262,0.327,0.3386,0.3417,0.3412,0.3419,0.3396,0.3541,0.3556,0.3571,0.3576,0.3592,0.3398,0.3398,0.3397,0.3396,0,0.2836,0.2869,0.2883,0.2947,0.2989,0.3023,0.3095,0.3147,0.3183,0.3235,0.3344,0.3374,0.345,0.3472,0.3468,0.3594,0.3553,0.3544,0.3502,0.3598,0.3597,0.3612,0.3406,0.3404,0.3402,0.3401,0,0,0.2787,0.2875,0.2878,0.2926,0.3005,0.3047,0.3133,0.3239,0.3322,0.3375,0.3487,0.3569,0.3597,0.3629,0.365,0.371,0.381,0.3671,0.3672,0.3675,0.3924,0.3763,0.3762,0.3826,0.3829,0.3832,0.3875,0,0.2788,0.2847,0.2901,0.2977,0.302,0.3109,0.3198,0.3303,0.3386,0.3498,0.3584,0.3677,0.3656,0.3704,0.377,0.3808,0.3857,0.3796,0.3834,0.3834,0.3677,0.3778,0.3706,0.3727,0.3889,0.3891,0.3893,0,0.2785,0.2832,0.289,0.3027,0.3058,0.3116,0.3285,0.3377,0.355,0.3618,0.3736,0.3786,0.3912,0.3861,0.3985,0.3946,0.3942,0.3952,0.3954,0.3781,0.3702,0.3663,0.3747,0.3718,0.3916,0.3914,0.3912,0,0.2734,0.2836,0.2884,0.2922,0.3068,0.3141,0.3241,0.3413,0.3502,0.3699,0.3753,0.392,0.397,0.4046,0.4042,0.4037,0.4128,0.4128,0.3976,0.3963,0.3896,0.3869,0.3954,0.4205,0.4205,0.4204,0.4204,0,0.2717,0.2765,0.2867,0.2897,0.2989,0.3125,0.3252,0.3384,0.3556,0.3644,0.3802,0.3863,0.4015,0.4065,0.4087,0.4056,0.4167,0.4003,0.3981,0.3921,0.3897,0.3859,0.3835,0.4206,0.4206,0.4205,0.4205,0,0.2652,0.2713,0.2778,0.2916,0.2958,0.3033,0.3209,0.3303,0.3481,0.3593,0.3647,0.3833,0.3913,0.3997,0.41,0.4066,0.3988,0.4032,0.391,0.3872,0.3697,0.3679,0.3508,0.3424,0.3922,0.3918,0.3915,0,0.2629,0.2647,0.2745,0.2766,0.2822,0.2942,0.3016,0.3229,0.3316,0.3536,0.3566,0.3699,0.3755,0.3844,0.3864,0.3891,0.3825,0.3788,0.3773,0.3686,0.3655,0.3486,0.3418,0.373,0.3726,0.3722,0.372,0,0.2582,0.26,0.2639,0.267,0.2724,0.2792,0.2921,0.297,0.3203,0.3285,0.3388,0.3464,0.3574,0.3602,0.3632,0.364,0.3647,0.371,0.3708,0.3576,0.3318,0.3226,0.366,0.3689,0.3692,0.3694,0.3696,0.3697,0.2531,0.2523,0.2553,0.2576,0.2616,0.2641,0.2667,0.2792,0.2885,0.302,0.3154,0.324,0.3408,0.3467,0.3425,0.3391,0.3355,0.3383,0.3389,0.3237,0.3094,0.3397,0.3333,0.3334,0.3335,0.3336,0.3336,0,0.2466,0.2457,0.2467,0.2478,0.2463,0.2526,0.259,0.2599,0.2636,0.28,0.2884,0.3055,0.3109,0.3218,0.3263,0.3163,0.3029,0.3105,0.2958,0.2927,0.3319,0.3253,0.3061,0.3061,0.3061,0.3061,0.3061,0.3061,0.2433,0.2399,0.2391,0.2327,0.2324,0.2282,0.2283,0.2295,0.2389,0.2483,0.2603,0.274,0.3011,0.3157,0.3128,0.3055,0.2894,0.2708,0.2693,0.3114,0.3144,0.3172,0.3109,0.289,0.289,0.2228,0.2224,0.2221]},{"header":{"parameterUnit":"m.s-1","parameterCategory":2,"la1":30.2991,"la2":30.254,"lo1":-89.0895,"lo2":-89.0444,"dy":0.0017,"dx":0.0017,"nx":28,"ny":28,"refTime":"2024-07-09T09:00:00:Z","depth":"0","parameterNumber":3,"parameterNumberName":"V-component_of_CURRENTS"},"data":[0,0,0,0,0,0,0,0,0,0,0,0,0,0,0,0,0,0,0,0,0,0,0,0,0,0,0,0,0,0,0,0,0,0,0,0,0,0,0,0,0,0,0,0,0,0,0,0,0,0,0,0,0,0,0,0,0,0,0.0185,0.0185,0,0.0129,0.0129,0.0128,0.0097,0.0096,0.0096,0.0096,0.0073,0.0072,0.0072,0,0,0,0,0,0,0,0,0,0,0,0,0,0.0248,0.0248,0.0185,0.0185,0.0184,0.0129,0.0129,0.0128,0.0097,0.0096,0.0096,0.0096,0.0073,0.0072,0.0072,0,0,0,0,0,0,0,0,0,0,0,0,0,0.0211,0.0248,0.0186,0.016,0.0157,0.0129,0.0129,0.0128,0.0097,0.0096,0.0096,0.0096,0.0073,0.0072,0.0072,0.0076,0,0,0.007,0.007,0,0,0,0,0,0,0,0,0.0214,0.0209,0.0165,0.0162,0.0158,0.0118,0.0142,0.0112,0.0097,0.0122,0.0096,0.0095,0.009,0.0088,0.008,0.0075,0.0074,0.007,0.007,0.0069,0.0069,0,0,0,0,0,0,0,0.0216,0.0211,0.0165,0.0164,0.016,0.0145,0.014,0.0136,0.0111,0.0119,0.0117,0.0108,0.0089,0.0081,0.008,0.0074,0.007,0.007,0.0069,0.0069,0.0068,0.0069,0,0,0,0,0,0,0.0221,0.0214,0.0167,0.0163,0.0184,0.0145,0.0139,0.0133,0.011,0.0105,0.0108,0.0106,0.0082,0.008,0.0079,0.0098,0.007,0.0069,0.0069,0.0068,0.0068,0.0069,0,0,0,0,0,0,0.0222,0.0217,0.0169,0.0186,0.0178,0.0144,0.0138,0.0132,0.0125,0.01,0.0097,0.0107,0.0082,0.008,0.0081,0.0097,0.0069,0.0068,0.0068,0.0068,0.0069,0.0128,0,0,0,0,0,0,0.0225,0.0218,0.0222,0.0186,0.0177,0.0161,0.0137,0.0131,0.0119,0.0116,0.0098,0.0095,0.0081,0.0082,0.008,0.0095,0.0068,0.0067,0.0068,0.0068,0.0126,0.013,0.0134,0,0,0,0,0,0.0227,0.0235,0.0222,0.0217,0.0181,0.0162,0.0157,0.0132,0.012,0.0123,0.0109,0.0096,0.0084,0.0082,0.008,0.0095,0.0067,0.0068,0.0068,0.0124,0.0129,0.0134,0,0,0,0,0,0,0.0265,0.0231,0.0217,0.0214,0.0192,0.0156,0.0157,0.0137,0.0127,0.0127,0.0104,0.0101,0.0106,0.0091,0.0089,0.0095,0.0072,0.0072,0.0114,0.012,0.0124,0.0153,0.0067,0,0,0,0,0,0.0274,0.0272,0.0236,0.0235,0.0227,0.0193,0.0183,0.0164,0.0145,0.014,0.0125,0.0112,0.0107,0.0106,0.0097,0.0105,0.0087,0.0111,0.0115,0.0119,0.0141,0.0122,0.0128,0.0071,0.0071,0.0071,0,0,0.0287,0.027,0.0267,0.0243,0.0225,0.0221,0.0187,0.0175,0.0179,0.0141,0.0148,0.0128,0.0112,0.0119,0.012,0.0109,0.0122,0.012,0.0124,0.0143,0.0124,0.0129,0.0134,0.0072,0.0072,0.0071,0,0,0.0315,0.0299,0.0306,0.0292,0.0267,0.0247,0.0246,0.0212,0.0208,0.0206,0.0181,0.0174,0.0162,0.0155,0.0151,0.0175,0.0146,0.0166,0.0217,0.0199,0.0203,0.0208,0.018,0.0181,0.0169,0.017,0.017,0,0.0333,0.0336,0.0306,0.031,0.0307,0.0262,0.0273,0.0261,0.0233,0.0246,0.0218,0.0211,0.0184,0.0207,0.0207,0.0188,0.0169,0.0199,0.0206,0.021,0.0213,0.0184,0.0185,0.0173,0.0172,0.0172,0.0172,0,0.0363,0.0366,0.0371,0.0363,0.0357,0.0358,0.0335,0.0339,0.0324,0.0311,0.0326,0.0288,0.0291,0.027,0.0245,0.0261,0.0237,0.0213,0.0196,0.0223,0.0189,0.0189,0.0177,0.0176,0.0175,0.0174,0,0,0.0402,0.0394,0.0398,0.0413,0.0387,0.0393,0.0407,0.0418,0.0455,0.0415,0.0459,0.0421,0.0401,0.0394,0.0357,0.0333,0.0319,0.0287,0.0285,0.0268,0.0275,0.0244,0.024,0.0296,0.0297,0.0297,0.0238,0,0.0437,0.0466,0.0448,0.0483,0.0499,0.0478,0.051,0.0515,0.0514,0.0545,0.0507,0.0525,0.0449,0.0457,0.042,0.0356,0.0324,0.0337,0.0246,0.0244,0.022,0.0241,0.0277,0.0227,0.0238,0.0238,0.0237,0,0.0475,0.0492,0.0534,0.057,0.0579,0.06,0.0659,0.0677,0.07,0.0705,0.0703,0.0668,0.0641,0.0567,0.0468,0.0481,0.0388,0.032,0.0316,0.0273,0.0213,0.0204,0.0225,0.0115,0.0237,0.0237,0.0237,0,0.0536,0.0558,0.0603,0.0608,0.0637,0.0679,0.0704,0.0738,0.079,0.0812,0.0848,0.0797,0.0787,0.0674,0.0517,0.0499,0.0397,0.0354,0.0236,0.0232,0.024,0.0236,0.0157,0.0283,0.0283,0.0283,0.0283,0,0.0585,0.0622,0.0645,0.0672,0.0756,0.0755,0.0858,0.0876,0.0936,0.1015,0.0941,0.098,0.0813,0.0727,0.057,0.0408,0.0434,0.0259,0.0223,0.0259,0.0257,0.0142,0.0054,0.0281,0.0281,0.0282,0.0282,0,0.0643,0.0649,0.0709,0.076,0.0787,0.0853,0.0954,0.1038,0.1069,0.1169,0.1184,0.1127,0.1011,0.0825,0.0638,0.0487,0.0256,0.0256,0.0302,0.0272,0.0063,-0.0023,-0.0143,-0.0207,0.0133,0.0132,0.0131,0,0.0671,0.0708,0.0779,0.0832,0.0862,0.096,0.1046,0.1105,0.1197,0.1262,0.1322,0.1238,0.1202,0.0909,0.0629,0.0365,0.0223,0.0213,0.0182,0.007,-0.0053,-0.01,-0.0147,0.0207,0.0207,0.0206,0.0206,0,0.0728,0.0756,0.0806,0.0915,0.1007,0.1115,0.1235,0.133,0.1414,0.1495,0.1561,0.1535,0.1254,0.1012,0.0638,0.0437,0.0143,0.0201,0.0084,0.0003,-0.0049,-0.0133,0.0213,0.0205,0.0205,0.0206,0.0206,0.0206,0.0773,0.0818,0.0892,0.0999,0.1104,0.1249,0.1366,0.15,0.1649,0.1793,0.1744,0.1768,0.1412,0.091,0.0602,0.0132,0.0106,0.0013,-0.0083,-0.0118,-0.0176,0.016,0.011,0.0109,0.0109,0.0109,0.0108,0,0.082,0.0876,0.0974,0.11,0.1227,0.1277,0.1479,0.1614,0.1798,0.1948,0.2014,0.1917,0.1436,0.0957,0.0298,-0.0054,-0.0177,-0.0242,-0.0286,-0.0323,-0.0012,-0.0004,-0.0079,-0.0078,-0.0078,-0.0078,-0.0078,-0.0078,0.0845,0.0935,0.0982,0.1173,0.1277,0.1465,0.1588,0.1786,0.195,0.2189,0.2287,0.2323,0.2027,0.0749,-0.0059,-0.0281,-0.0515,-0.0573,-0.0703,-0.0477,-0.0459,-0.0442,-0.0452,-0.0619,-0.062,-0.0929,-0.0933,-0.0936]}],[{"header":{"parameterUnit":"m.s-1","parameterCategory":2,"la1":30.2991,"la2":30.254,"lo1":-89.0895,"lo2":-89.0444,"dy":0.0017,"dx":0.0017,"nx":28,"ny":28,"refTime":"2024-07-09T09:00:00:Z","depth":"2","parameterNumber":2,"parameterNumberName":"U-component_of_CURRENTS"},"data":[0,0,0,0,0,0,0,0,0,0,0,0,0,0,0,0,0,0,0,0,0,0,0,0,0,0,0,0,0,0,0,0,0,0,0,0,0,0,0,0,0,0,0,0,0,0,0,0,0,0,0,0,0,0,0,0,0,0,0.2743,0.2744,0,0.2772,0.2772,0.2772,0.2766,0.2766,0.2765,0.2765,0.2766,0.2767,0.2767,0,0,0,0,0,0,0,0,0,0,0,0,0,0.268,0.268,0.2743,0.2744,0.2744,0.2772,0.2772,0.2772,0.2766,0.2766,0.2765,0.2765,0.2766,0.2766,0.2767,0,0,0,0,0,0,0,0,0,0,0,0,0,0.2705,0.2681,0.2743,0.2747,0.2748,0.2772,0.2772,0.2772,0.2766,0.2766,0.2765,0.2765,0.2766,0.2766,0.2767,0.2776,0,0,0.2768,0.2768,0,0,0,0,0,0,0,0,0.2703,0.2706,0.2746,0.2747,0.2748,0.2768,0.275,0.2773,0.2766,0.2756,0.2765,0.2765,0.2767,0.2767,0.2769,0.2776,0.2776,0.2768,0.2768,0.2768,0.2768,0,0,0,0,0,0,0,0.2701,0.2705,0.2751,0.2747,0.2748,0.2747,0.2749,0.2754,0.276,0.2757,0.2757,0.2766,0.2766,0.2769,0.2769,0.2776,0.2768,0.2768,0.2769,0.2769,0.2867,0.287,0,0,0,0,0,0,0.2705,0.2704,0.275,0.2752,0.2728,0.2748,0.2751,0.2759,0.276,0.2761,0.2766,0.2765,0.2768,0.2768,0.2769,0.2849,0.2768,0.2769,0.2769,0.2865,0.2868,0.287,0,0,0,0,0,0,0.2704,0.2709,0.2749,0.2731,0.2737,0.275,0.2759,0.276,0.2773,0.2768,0.2768,0.278,0.2768,0.2768,0.2791,0.2846,0.2769,0.2769,0.2862,0.2866,0.2869,0.2966,0,0,0,0,0,0,0.2702,0.2708,0.2715,0.2731,0.2738,0.2771,0.2759,0.2761,0.278,0.278,0.278,0.2779,0.2768,0.2791,0.2792,0.2846,0.277,0.2859,0.2864,0.2868,0.2959,0.2972,0.2983,0,0,0,0,0,0.2699,0.2705,0.2715,0.2721,0.2747,0.2772,0.2775,0.2781,0.2781,0.2791,0.2798,0.278,0.2821,0.2793,0.2793,0.2849,0.2857,0.2862,0.2868,0.2954,0.297,0.2983,0,0,0,0,0,0,0.2674,0.2706,0.2717,0.2731,0.2757,0.2773,0.2781,0.2792,0.2805,0.2804,0.2798,0.2799,0.2844,0.2831,0.2801,0.2892,0.2841,0.2847,0.2907,0.2921,0.2933,0.2951,0.277,0,0,0,0,0,0.2676,0.2691,0.2723,0.2735,0.275,0.2771,0.2783,0.2792,0.2807,0.2812,0.2818,0.2833,0.2866,0.2879,0.2891,0.2932,0.2931,0.2973,0.2985,0.2995,0.3012,0.3068,0.3086,0.2888,0.2888,0.2888,0,0,0.2669,0.269,0.2697,0.2732,0.275,0.2778,0.2776,0.28,0.2836,0.2811,0.2853,0.2867,0.2885,0.2937,0.2958,0.2934,0.3048,0.3002,0.301,0.3022,0.3075,0.3095,0.3112,0.2892,0.2891,0.289,0,0,0.2664,0.2684,0.2699,0.2726,0.2764,0.2783,0.2797,0.2827,0.2854,0.2898,0.2905,0.2959,0.2979,0.3025,0.3047,0.3133,0.3106,0.3134,0.3212,0.3267,0.3283,0.3298,0.3307,0.3321,0.3143,0.3144,0.3144,0,0.2656,0.268,0.2706,0.2733,0.2762,0.2791,0.2821,0.2858,0.2894,0.2942,0.292,0.3028,0.3034,0.3144,0.3174,0.3163,0.3165,0.3155,0.3282,0.3297,0.331,0.3316,0.3331,0.3149,0.3148,0.3148,0.3147,0,0.2667,0.2691,0.2703,0.2753,0.2788,0.2815,0.2876,0.2927,0.2965,0.3008,0.3117,0.3146,0.3217,0.3237,0.3229,0.3347,0.3306,0.3286,0.3245,0.3336,0.3335,0.335,0.3156,0.3155,0.3153,0.3152,0,0,0.2633,0.2698,0.2701,0.2741,0.2803,0.2838,0.2921,0.3015,0.3095,0.3149,0.3256,0.3339,0.3368,0.3397,0.3415,0.3467,0.3555,0.3419,0.3419,0.3424,0.3644,0.35,0.35,0.3553,0.3557,0.3559,0.3599,0,0.2635,0.268,0.2721,0.2785,0.282,0.2898,0.298,0.3076,0.3156,0.3261,0.3351,0.344,0.3427,0.3475,0.3533,0.3553,0.3599,0.3544,0.3558,0.3558,0.3417,0.3515,0.3262,0.3267,0.3612,0.3614,0.3616,0,0.2632,0.2667,0.2715,0.2829,0.2857,0.2908,0.3066,0.3152,0.3312,0.3379,0.3499,0.3547,0.3669,0.3623,0.3731,0.3692,0.3681,0.3682,0.3684,0.3528,0.3441,0.3235,0.3278,0.3639,0.3637,0.3635,0.3634,0,0.2593,0.2674,0.2714,0.2745,0.2867,0.2937,0.3028,0.3187,0.3272,0.3463,0.3517,0.3675,0.3729,0.3788,0.3777,0.3771,0.3843,0.3834,0.3697,0.3685,0.3462,0.3424,0.3904,0.3904,0.3904,0.3904,0.3904,0,0.2577,0.2617,0.2702,0.2727,0.2808,0.2929,0.305,0.3171,0.3333,0.3415,0.3571,0.3632,0.3769,0.3809,0.3817,0.3783,0.3878,0.3732,0.3703,0.3484,0.345,0.3764,0.3748,0.3905,0.3905,0.3905,0.3905,0,0.2525,0.2573,0.2627,0.2745,0.2782,0.2852,0.3013,0.3102,0.3274,0.3383,0.3438,0.3608,0.3679,0.3755,0.3831,0.3795,0.3803,0.3751,0.3459,0.3396,0.3605,0.3593,0.3663,0.3659,0.3655,0.3652,0.365,0,0.2504,0.2519,0.2601,0.2617,0.2665,0.2777,0.2843,0.304,0.3121,0.3331,0.3355,0.3486,0.3533,0.36,0.3587,0.3597,0.3681,0.3339,0.33,0.3624,0.359,0.3584,0.3577,0.3041,0.3033,0.3027,0.3022,0,0.2462,0.248,0.2512,0.2533,0.258,0.264,0.2755,0.2798,0.3016,0.3095,0.3185,0.3254,0.3335,0.325,0.3265,0.3236,0.3335,0.3215,0.3654,0.3129,0.3037,0.3003,0.3017,0.2969,0.2974,0.2978,0.2981,0.2983,0.2419,0.2411,0.2434,0.2449,0.2482,0.2496,0.2517,0.2623,0.2704,0.2809,0.2935,0.2951,0.3011,0.2925,0.2826,0.2769,0.3013,0.2911,0.2931,0.2956,0.2865,0.2771,0.2634,0.2637,0.264,0.2643,0.2645,0,0.2356,0.235,0.2355,0.2356,0.2332,0.2392,0.244,0.2428,0.2448,0.2554,0.2613,0.2426,0.239,0.2441,0.2281,0.2283,0.2275,0.219,0.2174,0.223,0.228,0.2154,0.1734,0.1731,0.1728,0.1725,0,0,0.2325,0.2289,0.2278,0.2206,0.22,0.2145,0.2138,0.2112,0.2151,0.2118,0.2117,0.2304,0.2388,0.2031,0.199,0.1833,0.2012,0.1758,0.2499,0.2539,0.2583,0.2716,0.2588,0,0,0,0,0]},{"header":{"parameterUnit":"m.s-1","parameterCategory":2,"la1":30.2991,"la2":30.254,"lo1":-89.0895,"lo2":-89.0444,"dy":0.0017,"dx":0.0017,"nx":28,"ny":28,"refTime":"2024-07-09T09:00:00:Z","depth":"2","parameterNumber":3,"parameterNumberName":"V-component_of_CURRENTS"},"data":[0,0,0,0,0,0,0,0,0,0,0,0,0,0,0,0,0,0,0,0,0,0,0,0,0,0,0,0,0,0,0,0,0,0,0,0,0,0,0,0,0,0,0,0,0,0,0,0,0,0,0,0,0,0,0,0,0,0,0.0124,0.0124,0,0.0065,0.0064,0.0064,0.0034,0.0034,0.0034,0.0033,0.0008,0.0007,0.0007,0,0,0,0,0,0,0,0,0,0,0,0,0,0.0195,0.0194,0.0124,0.0123,0.0123,0.0065,0.0064,0.0064,0.0034,0.0034,0.0033,0.0033,0.0008,0.0008,0.0007,0,0,0,0,0,0,0,0,0,0,0,0,0,0.0155,0.0194,0.0125,0.01,0.0097,0.0065,0.0064,0.0063,0.0034,0.0034,0.0033,0.0033,0.0008,0.0008,0.0007,0.0007,0,0,0.0004,0.0004,0,0,0,0,0,0,0,0,0.0157,0.0152,0.0104,0.0101,0.0098,0.0055,0.008,0.0046,0.0034,0.006,0.0033,0.0033,0.0026,0.0024,0.0015,0.0006,0.0005,0.0004,0.0004,0.0004,0.0003,0,0,0,0,0,0,0,0.016,0.0155,0.0103,0.0103,0.0099,0.0085,0.008,0.0073,0.0047,0.0057,0.0055,0.0045,0.0025,0.0016,0.0014,0.0005,0.0004,0.0004,0.0003,0.0003,-0.0005,-0.0005,0,0,0,0,0,0,0.0165,0.0157,0.0104,0.0101,0.0125,0.0084,0.0078,0.007,0.0046,0.0041,0.0046,0.0044,0.0017,0.0015,0.0013,0.0032,0.0004,0.0003,0.0002,-0.0005,-0.0005,-0.0004,0,0,0,0,0,0,0.0167,0.0161,0.0107,0.0126,0.0118,0.0083,0.0075,0.0069,0.0063,0.0036,0.0033,0.0045,0.0017,0.0014,0.0014,0.003,0.0003,0.0002,-0.0005,-0.0005,-0.0005,0.0057,0,0,0,0,0,0,0.0169,0.0162,0.0165,0.0127,0.0117,0.0098,0.0075,0.0068,0.0057,0.0054,0.0035,0.0032,0.0017,0.0015,0.0013,0.0029,0.0001,-0.0006,-0.0005,-0.0005,0.0055,0.006,0.0064,0,0,0,0,0,0.0172,0.0179,0.0166,0.0159,0.012,0.0098,0.0093,0.0068,0.0057,0.0061,0.0046,0.0033,0.0016,0.0015,0.0012,0.0028,-0.0006,-0.0005,-0.0005,0.0053,0.0059,0.0064,0,0,0,0,0,0,0.0213,0.0175,0.016,0.0156,0.0132,0.0093,0.0095,0.0074,0.0063,0.0063,0.0039,0.0035,0.004,0.0023,0.0022,0.0025,0.0002,0.0002,0.0046,0.0052,0.0056,0.0087,0.0001,0,0,0,0,0,0.0223,0.0218,0.0179,0.0177,0.0168,0.0132,0.0122,0.0102,0.0082,0.0077,0.0061,0.0046,0.0039,0.0037,0.0026,0.0032,0.0012,0.0038,0.0042,0.0046,0.0068,0.0045,0.005,-0.0003,-0.0003,-0.0003,0,0,0.0237,0.0217,0.0214,0.0186,0.0167,0.0162,0.0127,0.0114,0.0117,0.0077,0.0084,0.0063,0.0043,0.0048,0.0048,0.0038,0.0048,0.0047,0.0051,0.0071,0.0047,0.0052,0.0056,-0.0002,-0.0002,-0.0002,0,0,0.0266,0.0248,0.0254,0.0238,0.021,0.0189,0.0188,0.0152,0.0147,0.0144,0.0118,0.0109,0.0094,0.0085,0.0079,0.0102,0.0071,0.0092,0.0145,0.0122,0.0126,0.013,0.0101,0.0102,0.0096,0.0096,0.0096,0,0.0286,0.0286,0.0254,0.0256,0.0252,0.0205,0.0215,0.0202,0.0172,0.0184,0.0157,0.0144,0.0116,0.0136,0.0137,0.0115,0.0094,0.0128,0.0129,0.0133,0.0136,0.0105,0.0105,0.0099,0.0099,0.0099,0.0098,0,0.0316,0.0317,0.0322,0.031,0.0304,0.0303,0.0278,0.0282,0.0266,0.0251,0.0264,0.0224,0.0223,0.0202,0.0176,0.0188,0.0162,0.0136,0.012,0.0145,0.011,0.0109,0.0104,0.0103,0.0102,0.0101,0,0,0.0359,0.0346,0.0349,0.0363,0.0334,0.0339,0.0353,0.0361,0.0396,0.0355,0.0396,0.0357,0.0335,0.0326,0.0287,0.0261,0.0243,0.0212,0.0209,0.0192,0.0189,0.0166,0.0162,0.0216,0.0216,0.0216,0.0153,0,0.0394,0.0419,0.0399,0.0434,0.0447,0.0425,0.0455,0.0459,0.0455,0.0482,0.0442,0.0457,0.0383,0.0388,0.0349,0.0278,0.0246,0.0263,0.0161,0.0158,0.0142,0.0162,0.0171,0.0115,0.0152,0.0152,0.0152,0,0.0433,0.0447,0.0486,0.0518,0.0526,0.0547,0.0602,0.0619,0.0637,0.064,0.0634,0.0596,0.0566,0.0494,0.0388,0.0402,0.0307,0.0237,0.0232,0.0195,0.0135,0.0097,0.0112,0.0149,0.015,0.015,0.015,0,0.0494,0.0514,0.0556,0.056,0.0585,0.0625,0.0649,0.0679,0.0727,0.0745,0.0776,0.0721,0.0707,0.059,0.043,0.0414,0.0302,0.0259,0.0149,0.0145,0.0128,0.0122,0.0186,0.0186,0.0186,0.0186,0.0186,0,0.0544,0.0579,0.0598,0.0624,0.0704,0.0701,0.0801,0.0816,0.087,0.0941,0.0867,0.0898,0.0729,0.0637,0.048,0.0317,0.0337,0.0173,0.0136,0.0147,0.0144,0.0155,0.0153,0.0184,0.0184,0.0185,0.0185,0,0.0603,0.0607,0.0663,0.0709,0.0735,0.0798,0.0895,0.0973,0.1001,0.1091,0.1103,0.1038,0.0917,0.0732,0.0538,0.0392,0.023,0.0161,0.0182,0.0149,0.0075,0.0076,0.0049,0.0048,0.0047,0.0046,0.0045,0,0.063,0.0666,0.0732,0.0782,0.081,0.0904,0.0984,0.1039,0.1122,0.1177,0.1228,0.1139,0.1094,0.08,0.0524,0.0264,0.022,0.0096,0.0067,0.0099,0.0065,0.0067,0.007,0.0057,0.0056,0.0056,0.0056,0,0.0686,0.0713,0.076,0.0863,0.0949,0.1051,0.1163,0.125,0.1325,0.1397,0.1447,0.1413,0.1132,0.0866,0.0504,0.0316,0.0141,0.0079,0.0115,0.0095,0.0102,0.007,0.0073,0.0052,0.0052,0.0052,0.0053,0.0053,0.073,0.0773,0.0842,0.0943,0.1042,0.1176,0.1287,0.1405,0.1539,0.1649,0.1598,0.155,0.1239,0.0777,0.045,0.0103,0.0127,0.0002,0.0005,0.0008,0.0025,0.0031,-0.003,-0.003,-0.0031,-0.0031,-0.0031,0,0.0772,0.0827,0.092,0.1037,0.1155,0.1205,0.1391,0.1504,0.1665,0.1748,0.1787,0.1481,0.1174,0.081,0.0306,0.0016,-0.0017,-0.0093,-0.0063,-0.0057,-0.0052,-0.0037,-0.011,-0.0111,-0.0112,-0.0113,0,0,0.0794,0.0877,0.0922,0.1101,0.1202,0.1375,0.149,0.1643,0.1747,0.1837,0.1813,0.1732,0.1291,0.0911,0.0497,0.0202,0.0141,0.0132,0.0228,0.032,0.0329,0.0033,0.0066,0,0,0,0,0]}],[{"header":{"parameterUnit":"m.s-1","parameterCategory":2,"la1":30.2991,"la2":30.254,"lo1":-89.0895,"lo2":-89.0444,"dy":0.0017,"dx":0.0017,"nx":28,"ny":28,"refTime":"2024-07-09T09:00:00:Z","depth":"4","parameterNumber":2,"parameterNumberName":"U-component_of_CURRENTS"},"data":[0,0,0,0,0,0,0,0,0,0,0,0,0,0,0,0,0,0,0,0,0,0,0,0,0,0,0,0,0,0,0,0,0,0,0,0,0,0,0,0,0,0,0,0,0,0,0,0,0,0,0,0,0,0,0,0,0,0,0.1686,0.1687,0,0.1696,0.1696,0.1696,0.1723,0.1724,0.1725,0.1726,0.1756,0.1756,0.1756,0,0,0,0,0,0,0,0,0,0,0,0,0,0.1672,0.1672,0.1686,0.1687,0.1687,0.1696,0.1696,0.1696,0.1723,0.1724,0.1725,0.1726,0.1756,0.1756,0.1756,0,0,0,0,0,0,0,0,0,0,0,0,0,0.1677,0.1672,0.1686,0.1704,0.1706,0.1696,0.1696,0.1696,0.1723,0.1724,0.1726,0.1727,0.1756,0.1756,0.1756,0.1729,0,0,0.1756,0.1756,0,0,0,0,0,0,0,0,0.1676,0.1677,0.1701,0.1703,0.1705,0.1713,0.1702,0.1709,0.1723,0.1713,0.1726,0.1727,0.1745,0.1746,0.174,0.1731,0.1732,0.1756,0.1756,0.1756,0.1756,0,0,0,0,0,0,0,0.1676,0.1677,0.1687,0.1702,0.1704,0.1705,0.1707,0.1703,0.1719,0.1714,0.1717,0.1723,0.1746,0.174,0.1741,0.1732,0.1756,0.1756,0.1756,0.1756,0.1828,0.183,0,0,0,0,0,0,0.1681,0.1676,0.1687,0.1687,0.1697,0.1705,0.1707,0.1706,0.1719,0.1723,0.1721,0.1724,0.1739,0.1741,0.1742,0.1817,0.1756,0.1756,0.1756,0.1826,0.1828,0.183,0,0,0,0,0,0,0.168,0.1681,0.1686,0.1685,0.1686,0.1704,0.1703,0.1706,0.1742,0.1725,0.1729,0.176,0.174,0.1742,0.1778,0.1814,0.1756,0.1756,0.1824,0.1827,0.1829,0.1898,0,0,0,0,0,0,0.168,0.1681,0.1702,0.1685,0.1687,0.1708,0.1702,0.1705,0.1742,0.1747,0.1758,0.176,0.1741,0.1778,0.1778,0.1813,0.1756,0.1821,0.1825,0.1828,0.1893,0.1903,0.1911,0,0,0,0,0,0.1679,0.1694,0.1703,0.1706,0.1709,0.171,0.1711,0.1726,0.1744,0.1763,0.1778,0.1762,0.1801,0.1779,0.1779,0.1815,0.1819,0.1824,0.1828,0.1889,0.1901,0.1911,0,0,0,0,0,0,0.1701,0.1698,0.1708,0.1723,0.1733,0.1717,0.1742,0.175,0.1775,0.1793,0.1779,0.1782,0.1826,0.1814,0.1791,0.1848,0.181,0.1815,0.1857,0.1868,0.1877,0.1886,0.1756,0,0,0,0,0,0.1715,0.1729,0.1725,0.1745,0.1752,0.1757,0.1769,0.1777,0.1787,0.1801,0.1809,0.1823,0.1834,0.185,0.1852,0.1881,0.1887,0.1907,0.1916,0.1924,0.1933,0.1998,0.2014,0.1844,0.1844,0.1844,0,0,0.1733,0.1733,0.1745,0.1752,0.1762,0.177,0.1768,0.1796,0.1805,0.1799,0.1836,0.1854,0.185,0.1882,0.1902,0.1883,0.1972,0.1929,0.1936,0.1941,0.2005,0.2021,0.2036,0.1847,0.1847,0.1846,0,0,0.1756,0.1774,0.179,0.18,0.1821,0.1813,0.1832,0.1841,0.1855,0.1883,0.1888,0.193,0.1945,0.195,0.1951,0.2012,0.2016,0.2031,0.2085,0.2148,0.2163,0.2176,0.2187,0.22,0.2037,0.2038,0.2038,0,0.1784,0.1792,0.1799,0.1813,0.182,0.1837,0.1848,0.1857,0.1881,0.1907,0.1908,0.1971,0.1967,0.2009,0.2038,0.203,0.2066,0.2041,0.216,0.2173,0.2185,0.2194,0.2208,0.2041,0.2041,0.2041,0.204,0,0.1801,0.1825,0.1838,0.1853,0.186,0.188,0.188,0.1913,0.1937,0.1959,0.2025,0.2029,0.2075,0.2083,0.2079,0.217,0.2166,0.2162,0.2132,0.2207,0.221,0.2224,0.2047,0.2045,0.2044,0.2043,0,0,0.1807,0.1844,0.1852,0.1861,0.1883,0.1881,0.191,0.1939,0.1983,0.2026,0.2083,0.2118,0.2168,0.2174,0.2186,0.2241,0.2342,0.226,0.2261,0.2267,0.2478,0.2308,0.2306,0.2389,0.2393,0.2395,0.2439,0,0.1822,0.1852,0.1858,0.1881,0.189,0.1909,0.1932,0.197,0.2012,0.2079,0.2121,0.219,0.2186,0.2238,0.2293,0.2332,0.2387,0.2329,0.2407,0.2408,0.2247,0.2318,0.2405,0.2449,0.2452,0.2454,0.2455,0,0.182,0.184,0.187,0.1891,0.1898,0.1922,0.1966,0.1988,0.2086,0.2138,0.223,0.2278,0.2364,0.2354,0.246,0.2442,0.248,0.2498,0.25,0.2328,0.2264,0.2364,0.2479,0.2477,0.2475,0.2474,0.2472,0,0.1793,0.1833,0.1855,0.1866,0.1905,0.1933,0.1959,0.2036,0.2068,0.2209,0.2277,0.2377,0.2446,0.2513,0.2558,0.2544,0.2664,0.263,0.2502,0.2488,0.2596,0.2582,0.2725,0.2725,0.2725,0.2725,0.2725,0,0.177,0.1791,0.1862,0.1875,0.1909,0.1938,0.1988,0.2051,0.2147,0.2217,0.2329,0.2393,0.2511,0.2581,0.2601,0.2582,0.2701,0.2519,0.2501,0.2619,0.2608,0.2603,0.2589,0.2727,0.2726,0.2726,0.2726,0,0.1722,0.1775,0.1807,0.1876,0.19,0.1929,0.1993,0.2033,0.2152,0.2245,0.2307,0.2448,0.2537,0.26,0.2701,0.2619,0.2624,0.26,0.2709,0.2695,0.2386,0.2375,0.2427,0.2421,0.2417,0.2413,0.241,0,0.1693,0.1715,0.1805,0.1828,0.1867,0.1914,0.1947,0.2042,0.2082,0.2253,0.2291,0.2438,0.2516,0.2483,0.2579,0.2579,0.2564,0.2533,0.2463,0.2385,0.2363,0.2359,0.2354,0.2402,0.2401,0.24,0.2399,0,0.1636,0.1697,0.1725,0.1784,0.183,0.1846,0.1905,0.1916,0.2034,0.2172,0.2222,0.226,0.2347,0.2382,0.2416,0.2417,0.2522,0.2485,0.2493,0.2427,0.2357,0.2338,0.2339,0.2383,0.2385,0.2387,0.2388,0,0.1602,0.1615,0.1675,0.1699,0.1757,0.175,0.1784,0.181,0.1851,0.2033,0.2055,0.2196,0.2334,0.2301,0.2332,0.2315,0.2267,0.2173,0.2196,0.2215,0.2125,0.2004,0.1917,0,0,0,0,0,0.1547,0.1545,0.1573,0.1585,0.1637,0.1661,0.1737,0.1774,0.1898,0.1882,0.1949,0.2018,0.2053,0.212,0.2058,0.2239,0.2281,0.2156,0.2187,0.2296,0.2314,0.2229,0,0,0,0,0,0,0.1509,0.1542,0.1536,0.1479,0.1465,0.1496,0.1536,0.1624,0.1597,0.1747,0.177,0.1893,0.1952,0.2072,0.2022,0.2043,0.2016,0.2244,0.2238,0.2286,0.2302,0.2317,0.2235,0,0,0,0,0]},{"header":{"parameterUnit":"m.s-1","parameterCategory":2,"la1":30.2991,"la2":30.254,"lo1":-89.0895,"lo2":-89.0444,"dy":0.0017,"dx":0.0017,"nx":28,"ny":28,"refTime":"2024-07-09T09:00:00:Z","depth":"4","parameterNumber":3,"parameterNumberName":"V-component_of_CURRENTS"},"data":[0,0,0,0,0,0,0,0,0,0,0,0,0,0,0,0,0,0,0,0,0,0,0,0,0,0,0,0,0,0,0,0,0,0,0,0,0,0,0,0,0,0,0,0,0,0,0,0,0,0,0,0,0,0,0,0,0,0,0.0055,0.0055,0,0.0008,0.0008,0.0007,-0.0014,-0.0015,-0.0015,-0.0015,-0.0045,-0.0046,-0.0047,0,0,0,0,0,0,0,0,0,0,0,0,0,0.0117,0.0116,0.0055,0.0055,0.0054,0.0008,0.0008,0.0007,-0.0014,-0.0015,-0.0015,-0.0015,-0.0045,-0.0046,-0.0047,0,0,0,0,0,0,0,0,0,0,0,0,0,0.0083,0.0116,0.0055,0.0037,0.0034,0.0008,0.0008,0.0007,-0.0014,-0.0015,-0.0015,-0.0015,-0.0045,-0.0046,-0.0047,-0.0052,0,0,-0.005,-0.0051,0,0,0,0,0,0,0,0,0.0085,0.0081,0.004,0.0038,0.0035,0.0002,0.0018,-0.0012,-0.0014,0.0005,-0.0015,-0.0015,-0.0029,-0.0031,-0.0038,-0.0053,-0.0054,-0.005,-0.0051,-0.0052,-0.0052,0,0,0,0,0,0,0,0.0087,0.0083,0.0038,0.0039,0.0036,0.0027,0.0023,0.0012,-0.0009,0.0004,0.0002,-0.0005,-0.003,-0.0037,-0.0039,-0.0055,-0.005,-0.0051,-0.0052,-0.0052,-0.0074,-0.0074,0,0,0,0,0,0,0.0091,0.0085,0.0039,0.0036,0.0059,0.0026,0.0021,0.0014,-0.001,-0.0014,-0.0005,-0.0006,-0.0035,-0.0038,-0.004,-0.0027,-0.0052,-0.0053,-0.0053,-0.0074,-0.0074,-0.0074,0,0,0,0,0,0,0.0093,0.0088,0.0041,0.0059,0.0052,0.0025,0.0017,0.0013,0.0008,-0.0017,-0.002,-0.0005,-0.0035,-0.0039,-0.0044,-0.0029,-0.0053,-0.0054,-0.0075,-0.0074,-0.0074,-0.0014,0,0,0,0,0,0,0.0095,0.0089,0.0091,0.0059,0.0051,0.0034,0.0017,0.0012,0.0003,0.0001,-0.0018,-0.0021,-0.0036,-0.0042,-0.0045,-0.0031,-0.0055,-0.0075,-0.0074,-0.0074,-0.0016,-0.0011,-0.0008,0,0,0,0,0,0.0097,0.0102,0.0092,0.0087,0.0054,0.0035,0.0031,0.0012,0.0003,0.0006,-0.0009,-0.0021,-0.0044,-0.0043,-0.0046,-0.0032,-0.0075,-0.0075,-0.0074,-0.0017,-0.0012,-0.0008,0,0,0,0,0,0,0.0134,0.0099,0.0087,0.0083,0.0063,0.0031,0.0033,0.0016,0.0006,0.0006,-0.0017,-0.0021,-0.0021,-0.0039,-0.0038,-0.0041,-0.0062,-0.0062,-0.0018,-0.0013,-0.0009,0.0014,-0.0056,0,0,0,0,0,0.0142,0.0137,0.0102,0.0101,0.0093,0.0064,0.0056,0.004,0.0021,0.0017,0.0001,-0.0015,-0.0024,-0.0027,-0.0041,-0.004,-0.0064,-0.0036,-0.0031,-0.0028,-0.0013,-0.0045,-0.0042,-0.0074,-0.0074,-0.0074,0,0,0.0156,0.0137,0.0135,0.0109,0.0094,0.009,0.006,0.0049,0.0054,0.0016,0.0022,-0.0001,-0.0022,-0.0021,-0.0023,-0.0031,-0.0034,-0.0027,-0.0024,-0.0011,-0.0044,-0.0041,-0.0038,-0.0073,-0.0073,-0.0073,0,0,0.0183,0.0166,0.017,0.0156,0.0132,0.0114,0.0113,0.0082,0.0079,0.0075,0.005,0.0037,0.0021,0.001,0.0003,0.0019,-0.0014,0.0011,0.0055,0.0024,0.0027,0.0029,-0.0004,-0.0005,0.0015,0.0016,0.0016,0,0.0204,0.0201,0.0171,0.0171,0.0169,0.0129,0.0138,0.0127,0.0101,0.0108,0.0086,0.0062,0.0039,0.0047,0.0051,0.0031,0.0005,0.0042,0.0031,0.0032,0.0034,-0.0001,-0.0003,0.0019,0.0018,0.0018,0.0018,0,0.0227,0.0229,0.0233,0.0221,0.0217,0.0217,0.0195,0.0199,0.0185,0.0169,0.017,0.0131,0.0121,0.0105,0.0085,0.0086,0.0062,0.0038,0.0023,0.0041,0.0003,-0.0001,0.0023,0.0022,0.0021,0.002,0,0,0.0268,0.0252,0.0257,0.0267,0.0244,0.0247,0.0263,0.0268,0.0288,0.0254,0.0275,0.0243,0.0215,0.0204,0.0169,0.0141,0.0117,0.0099,0.0096,0.0076,0.0046,0.0049,0.0045,0.009,0.009,0.009,0.0015,0,0.0299,0.0317,0.0301,0.0331,0.034,0.0324,0.0349,0.035,0.0338,0.0346,0.0308,0.0306,0.0255,0.025,0.0214,0.0141,0.0112,0.014,0.0025,0.0022,0.0029,0.0043,0.009,0.0012,0.0011,0.001,0.001,0,0.033,0.0339,0.0373,0.0398,0.0404,0.0423,0.0461,0.0474,0.0473,0.0466,0.0448,0.0405,0.0369,0.0317,0.0211,0.023,0.0151,0.0087,0.0082,0.0066,0.0019,-0.001,0.0003,0.0004,0.0004,0.0005,0.0005,0,0.0377,0.0395,0.0431,0.0435,0.0452,0.0489,0.0508,0.0519,0.0547,0.0541,0.0547,0.0489,0.0464,0.036,0.023,0.0218,0.0105,0.0066,-0.0004,-0.0006,-0.0013,-0.0015,-0.0003,-0.0002,-0.0002,-0.0002,-0.0002,0,0.0413,0.0445,0.0463,0.0484,0.055,0.0546,0.0616,0.0626,0.0646,0.0683,0.0614,0.0615,0.0472,0.0387,0.0259,0.0125,0.0125,0.0014,-0.0019,0.0012,0.0014,-0.0016,-0.0017,-0.0005,-0.0004,-0.0004,-0.0003,0,0.0454,0.0461,0.0508,0.0549,0.0573,0.0623,0.0689,0.0733,0.0741,0.0784,0.0787,0.0712,0.0601,0.0451,0.028,0.0173,0.0036,-0.0011,0.0045,0.0014,-0.0065,-0.0062,-0.0102,-0.0102,-0.0103,-0.0103,-0.0103,0,0.0468,0.0497,0.0563,0.0605,0.063,0.0702,0.0759,0.0788,0.0829,0.0842,0.0864,0.0778,0.071,0.0477,0.0306,0.0076,0.0039,-0.0038,-0.006,-0.0044,-0.0073,-0.0069,-0.0065,-0.0104,-0.0104,-0.0104,-0.0104,0,0.0497,0.0529,0.0568,0.0655,0.0723,0.0798,0.0873,0.0911,0.0948,0.0955,0.0935,0.0815,0.0691,0.0493,0.0324,0.0152,0.0006,-0.0043,-0.0044,-0.0065,-0.0047,-0.0074,-0.007,-0.0105,-0.0105,-0.0105,-0.0105,0,0.0521,0.0554,0.0612,0.0691,0.0778,0.086,0.0903,0.0952,0.0989,0.1001,0.0995,0.0856,0.0779,0.0532,0.0373,0.0212,0.0153,0.0081,0.0072,0.0071,0.0139,0.0188,0.0186,0,0,0,0,0,0.053,0.0567,0.0641,0.0722,0.0815,0.0868,0.0961,0.0995,0.1034,0.1034,0.1018,0.0906,0.0672,0.0565,0.0405,0.0341,0.0111,0.0144,0.0021,-0.0112,-0.011,-0.006,0,0,0,0,0,0,0.0529,0.0594,0.0629,0.0732,0.08,0.09,0.0964,0.0999,0.0996,0.1013,0.0894,0.0849,0.0621,0.0767,0.0397,0.0347,0.0242,0.0041,0.0037,-0.0112,-0.0111,-0.011,-0.0058,0,0,0,0,0]}]]